#timestamp,LO_Frequency,Hit,StdDev 
1542038415.9,286046994.1,N
1542038435.7,286046994.9,N
1542038455.5,286046997.0,N
1542038475.4,286047002.8,N
1542038495.2,286047001.7,N
1542038515.0,286046999.7,N
1542038516.0,286046999.7,N
1542038535.8,286046996.6,N
1542038555.6,286046995.7,N
1542038575.5,286046995.2,N
1542038595.3,286046995.1,N
1542038615.1,286046994.9,N
1542038635.9,286046995.0,N
1542038655.7,286046995.8,N
1542038675.5,286046995.5,N
1542038695.4,286046994.7,N
1542038715.2,286046996.1,N
1542038735.1,286046997.9,N
1542038736.0,286046997.9,N
1542038755.8,286046994.7,N
1542038775.6,286046996.4,N
1542038795.5,286046993.8,N
1542038815.3,286046995.0,N
1542038835.2,286046999.1,N
1542038855.9,286046999.3,N
1542038875.7,286046995.0,N
1542038895.6,286046996.9,N
1542038915.4,286046998.5,N
1542038935.2,286047000.5,N
1542038955.1,286047000.4,N
1542038956.0,286047000.4,N
1542038975.8,286046998.5,N
1542038995.7,286046997.5,N
1542039015.5,286047000.5,N
1542039035.3,286046998.7,N
1542039055.2,286046998.8,N
1542039075.0,286047002.8,N
1542039075.9,286047002.8,N
1542039095.7,286047002.0,N
1542039115.6,286047002.7,N
1542039135.4,286047001.2,N
1542039155.3,286046997.1,N
1542039175.1,286046997.8,N
1542039176.0,286046997.8,N
1542039195.8,286046993.4,N
1542039215.7,286046992.0,Y
1542039235.5,286046993.0,P
1542039255.3,286046991.0,P
1542039275.2,286046989.2,P
1542039295.0,286046987.7,Y
1542039295.9,286046987.7,P
1542039315.8,286046993.7,N
1542039335.6,286046997.6,N
1542039355.4,286046999.6,N
1542039375.3,286047001.0,N
1542039395.1,286047003.8,N
1542039415.9,286047003.6,N
1542039435.7,286047001.6,N
1542039455.5,286047000.4,N
1542039475.4,286046999.0,N
1542039495.2,286046999.6,N
1542039515.0,286046999.6,N
1542039515.9,286046999.6,N
1542039535.8,286046999.3,N
1542039555.6,286047000.7,N
1542039575.5,286046999.4,N
1542039595.3,286047001.1,N
1542039615.1,286047002.1,N
1542039635.9,286047001.6,N
1542039655.7,286047001.9,N
1542039675.5,286047002.5,N
1542039695.4,286047003.5,N
1542039715.2,286047003.9,N
1542039735.0,286047004.6,N
1542039736.0,286047004.6,N
1542039755.8,286047005.7,N
1542039775.6,286047005.2,N
1542039795.5,286047005.0,N
1542039815.3,286047007.1,N
1542039835.1,286047005.9,N
1542039855.9,286047005.3,N
1542039875.7,286047005.8,N
1542039895.5,286047004.6,N
1542039915.4,286047007.2,N
1542039935.2,286047009.1,Y
1542039955.1,286047005.9,P
1542039956.0,286047005.9,P
1542039975.8,286047003.4,N
1542039995.6,286046999.7,N
1542040015.5,286047004.0,N
1542040035.3,286047002.5,N
1542040055.2,286047000.3,N
1542040075.9,286046999.6,N
1542040095.7,286046996.9,N
1542040115.6,286047001.1,N
1542040135.4,286046998.8,N
1542040155.2,286046998.8,N
1542040175.1,286047001.1,N
1542040176.0,286047001.1,N
1542040195.8,286046998.5,N
1542040215.7,286046999.0,N
1542040235.5,286047000.6,N
1542040255.3,286047001.5,N
1542040275.2,286047003.9,N
1542040295.0,286047002.2,N
1542040295.9,286047002.2,N
1542040315.7,286047001.3,N
1542040335.6,286047002.5,N
1542040355.4,286047000.4,N
1542040375.3,286047002.4,N
1542040395.1,286047001.6,N
1542040415.8,286046999.8,N
1542040435.7,286047000.4,N
1542040455.5,286047001.2,N
1542040475.4,286047002.1,N
1542040495.2,286047001.9,N
1542040515.0,286047002.6,N
1542040515.9,286047002.6,N
1542040535.8,286047004.0,N
1542040555.6,286047003.8,N
1542040575.4,286047001.7,N
1542040595.3,286047004.3,N
1542040615.1,286047002.5,N
1542040635.9,286046999.8,N
1542040655.7,286047002.1,N
1542040675.5,286046999.7,N
1542040695.4,286047002.5,N
1542040715.2,286046999.7,N
1542040735.0,286047002.6,N
1542040735.9,286047002.6,N
1542040755.8,286047002.0,N
1542040775.6,286046998.4,N
1542040795.5,286046998.4,N
1542040815.3,286046998.8,N
1542040835.1,286046999.3,N
1542040855.9,286046998.7,N
1542040875.7,286046999.2,N
1542040895.5,286047000.7,N
1542040915.4,286046998.2,N
1542040935.2,286047000.9,N
1542040955.0,286047001.8,N
1542040956.0,286047001.8,N
1542040975.8,286047001.0,N
1542040995.6,286046998.7,N
1542041015.5,286046998.7,N
1542041035.3,286047001.2,N
1542041055.1,286046998.3,N
1542041075.9,286047000.8,N
1542041095.7,286046998.9,N
1542041115.5,286047000.7,N
1542041135.4,286046999.9,N
1542041155.2,286047000.6,N
1542041175.1,286047001.9,N
1542041176.0,286047001.9,N
1542041195.8,286047001.1,N
1542041215.6,286046999.6,N
1542041235.5,286046999.3,N
1542041255.3,286046997.7,N
1542041275.1,286046996.8,N
1542041295.9,286046997.4,N
1542041315.7,286046999.0,N
1542041335.6,286046999.0,N
1542041355.4,286046998.8,N
1542041375.2,286047000.7,N
1542041395.1,286047001.1,N
1542041396.0,286047001.1,N
1542041415.8,286046998.9,N
1542041435.6,286047000.4,N
1542041455.5,286046999.2,N
1542041475.3,286046999.4,N
1542041495.2,286047000.8,N
1542041515.9,286046999.1,N
1542041535.7,286046998.3,N
1542041555.6,286047000.8,N
1542041575.4,286047000.6,N
1542041595.2,286047001.0,N
1542041615.1,286046998.5,N
1542041646.0,286047000.1,E
1542041655.0,286047001.2,N
1542041655.9,286047001.2,P
1542041675.8,286046998.7,P
1542041695.6,286046999.3,N
1542041715.4,286046998.7,N
1542041735.3,286046998.4,N
1542041755.1,286046999.0,N
1542041775.9,286046998.9,N
1542041795.7,286047002.6,N
1542041815.5,286047002.7,N
1542041835.4,286047001.7,N
1542041855.2,286047002.5,N
1542041875.0,286047003.7,N
1542041875.9,286047003.7,N
1542041895.8,286047003.0,N
1542041915.6,286047006.0,Y
1542041935.5,286047004.1,P
1542041955.3,286047002.7,N
1542041975.1,286047002.3,N
1542041995.9,286046999.8,N
